GW0492 Weather Reports


time (UTC)temp
F
wind
direction
speed
knots
gust
knots
rain 1hr
in
rain 24hr
in
rain mn
in
humidity
%
barometer
mb
20260504151037 66 113 2.6 7.0 0.00 0.00 0.00 38 999.4
20260504141017 61 135 2.6 8.7 0.00 0.00 0.00 44 999.7
20260504081016 43 0.0 0.0 0.00 0.00 0.00 73 1000.4
20260504045016 46 0.0 0.0 0.00 0.00 0.00 71 1000.0
20260504044016 46 0.0 0.0 0.00 0.00 0.00 73 999.9
20260504043016 45 0.0 0.0 0.00 0.00 0.00 74 999.9
20260504042016 45 0.0 0.0 0.00 0.00 0.00 75 999.9
20260504041035 45 0.0 0.0 0.00 0.00 0.00 76 999.7
20260504040016 45 0.0 0.0 0.00 0.00 0.00 75 999.6
20260504035017 46 0.0 0.0 0.00 0.00 0.00 74 999.5
20260504034017 46 0.0 0.0 0.00 0.00 0.00 73 999.4
20260504033017 46 0.0 0.0 0.00 0.00 0.00 73 999.3
20260504032017 47 0.0 0.0 0.00 0.00 0.00 71 999.3
20260504031017 47 0.0 0.0 0.00 0.00 0.00 69 999.3
20260504030017 48 0.0 0.0 0.00 0.00 0.00 67 999.2
20260504025017 48 0.0 0.0 0.00 0.00 0.00 61 999.3
20260504024017 48 0.0 0.0 0.00 0.00 0.00 60 999.3
20260504023037 49 0.0 0.0 0.00 0.00 0.00 59 999.3
20260504022037 49 0.0 0.0 0.00 0.00 0.00 58 999.3
20260504021017 49 0.0 0.0 0.00 0.00 0.00 60 999.3
20260504020017 50 0.0 0.0 0.00 0.00 0.00 60 999.1
20260504015017 50 0.0 0.0 0.00 0.00 0.00 59 999.3
20260504014017 50 0.0 0.0 0.00 0.00 0.00 57 999.2
20260504013016 51 0.0 0.0 0.00 0.00 0.00 54 999.2
20260504012037 51 0.0 0.0 0.00 0.00 0.00 52 999.1
20260504011037 52 0.0 0.0 0.00 0.00 0.00 52 999.0
20260504010017 53 0.0 0.0 0.00 0.00 0.00 51 998.9
20260504005016 54 0.0 0.0 0.00 0.00 0.00 49 998.8
20260504004057 55 0.0 0.0 0.00 0.00 0.00 46 998.7
20260504003017 56 0.0 0.0 0.00 0.00 0.00 44 998.5
20260504002016 57 0.0 0.0 0.00 0.00 0.00 40 998.4
20260504001016 58 0.0 0.0 0.00 0.00 0.00 38 998.3
20260504000017 58 0.0 0.0 0.00 0.00 0.00 38 998.3
20260503235036 59 0.0 0.9 0.00 0.00 0.00 36 998.2
20260503234057 60 0.0 3.5 0.00 0.00 0.00 35 998.1
20260503233036 60 180 0.9 6.1 0.00 0.00 0.00 35 997.9
20260503232016 61 180 0.9 7.0 0.00 0.00 0.00 34 998.0
20260503231037 61 0.0 0.9 0.00 0.00 0.00 34 997.9
20260503230016 61 180 1.7 8.7 0.00 0.00 0.00 33 997.9
20260503225016 61 180 0.9 5.2 0.00 0.00 0.00 33 997.9
20260503224016 60 180 0.9 5.2 0.00 0.00 0.00 33 997.8
20260503223016 61 225 1.7 6.1 0.00 0.00 0.00 33 997.7
20260503222016 61 180 3.5 9.6 0.00 0.00 0.00 33 997.8
20260503221016 61 203 2.6 8.7 0.00 0.00 0.00 32 997.8
20260503220016 61 203 4.3 11.3 0.00 0.00 0.00 32 997.8
20260503215016 62 225 5.2 11.3 0.00 0.00 0.00 31 997.8
20260503214016 62 203 3.5 8.7 0.00 0.00 0.00 31 997.7
20260503213016 62 203 2.6 7.0 0.00 0.00 0.00 32 997.6
20260503212016 61 225 3.5 10.4 0.00 0.00 0.00 30 997.6
20260503211036 61 203 4.3 9.6 0.00 0.00 0.00 31 997.7
20260503210036 61 180 4.3 15.6 0.00 0.00 0.00 30 997.8
20260503205016 61 158 6.1 13.0 0.00 0.00 0.00 30 997.7
20260503204037 61 203 5.2 15.6 0.00 0.00 0.00 31 997.7
20260503203036 61 203 3.5 11.3 0.00 0.00 0.00 31 997.7
20260503202016 61 180 3.5 9.6 0.00 0.00 0.00 33 997.9
20260503201016 61 180 0.9 8.7 0.00 0.00 0.00 31 998.0
20260503200016 60 135 4.3 13.0 0.00 0.00 0.00 33 998.1
20260503195016 60 203 6.1 13.9 0.00 0.00 0.00 32 998.4
20260503194016 59 225 5.2 13.0 0.00 0.00 0.00 32 998.5
20260503193016 59 180 5.2 13.0 0.00 0.00 0.00 33 998.5
20260503192016 59 203 3.5 12.2 0.00 0.00 0.00 34 998.5
20260503191016 59 203 4.3 13.9 0.00 0.00 0.00 35 998.8
20260503190016 59 180 5.2 12.2 0.00 0.00 0.00 33 998.8
20260503185016 58 158 1.7 7.0 0.00 0.00 0.00 35 998.8
20260503184016 57 203 3.5 11.3 0.00 0.00 0.00 35 998.9
20260503183016 57 180 5.2 15.6 0.00 0.00 0.00 34 999.0
20260503182016 57 203 7.0 14.8 0.00 0.00 0.00 34 999.3
20260503181016 58 203 4.3 13.0 0.00 0.00 0.00 34 999.2
20260503180016 56 203 5.2 14.8 0.00 0.00 0.00 37 999.2
20260503175036 56 225 6.1 11.3 0.00 0.00 0.00 34 999.3
20260503174016 56 180 4.3 13.9 0.00 0.00 0.00 37 999.2
20260503173016 56 225 6.1 13.0 0.00 0.00 0.00 38 999.4
20260503172016 56 225 6.1 14.8 0.00 0.00 0.00 38 999.4
20260503171036 55 203 5.2 13.0 0.00 0.00 0.00 36 999.4